Terminal Aerodrome Forecast
Issued by NWS Bismarck, ND

Home | Current Version | Previous Version | Graphics & Text | Print | Product List | Glossary On
Versions: 1 2 3 4 5 6 7 8 9 10 11 12
615
FTUS43 KBIS 140525
TAFISN
TAF
KISN 140525Z 1406/1506 27010KT P6SM SKC
     FM141000 23004KT P6SM SKC=

USA.gov is the U.S. government's official web portal to all federal, state and local government web resources and services.